• în România
  • Lista ţărilor
  • Pe 7 zile
  • Temperatura apei
  • Hartă satelitară
  • Meteo pe hartă
  • Widget-uri
  • user-avatar
    Intrare

    Meteo pe oră la Wiktoria

    Astăzi, 18 Ianuarie, Miercuri

    Timp Temperatura Precipitaţii Vânt Presiune Umiditate
    00:00 +26°C° 0 mm 3 m/s 744 mmHg 38%
    01:00 +25°C° 0 mm 3 m/s 744 mmHg 45%
    02:00 +24°C° 0 mm 2 m/s 744 mmHg 50%
    03:00 +23°C° 0 mm 2 m/s 744 mmHg 54%
    04:00 +21°C° 0 mm 2 m/s 744 mmHg 56%
    05:00 +21°C° 0 mm 2 m/s 744 mmHg 58%
    06:00 +21°C° 0 mm 2 m/s 745 mmHg 60%
    07:00 +21°C° 0 mm 2 m/s 746 mmHg 62%
    08:00 +21°C° 0 mm 2 m/s 746 mmHg 60%
    09:00 +21°C° 0 mm 3 m/s 747 mmHg 59%
    10:00 +21°C° 0 mm 3 m/s 747 mmHg 58%
    11:00 +24°C° 0 mm 3 m/s 747 mmHg 49%
    12:00 +25°C° 0 mm 3 m/s 747 mmHg 41%
    13:00 +27°C° 0 mm 3 m/s 747 mmHg 33%
    14:00 +27°C° 0 mm 3 m/s 747 mmHg 31%
    15:00 +27°C° 0 mm 3 m/s 747 mmHg 29%
    16:00 +28°C° 0 mm 3 m/s 747 mmHg 28%
    17:00 +26°C° 0 mm 3 m/s 747 mmHg 31%
    18:00 +24°C° 0 mm 3 m/s 747 mmHg 35%
    19:00 +22°C° 0 mm 3 m/s 748 mmHg 38%
    20:00 +20°C° 0 mm 3 m/s 748 mmHg 43%
    21:00 +18°C° 0 mm 3 m/s 748 mmHg 49%
    22:00 +17°C° 0 mm 3 m/s 749 mmHg 54%
    23:00 +16°C° 0 mm 2 m/s 749 mmHg 56%

    Mâine, 19 Ianuarie, Joi

    Timp Temperatura Precipitaţii Vânt Presiune Umiditate
    00:00 +15°C° 0 mm 2 m/s 748 mmHg 59%
    01:00 +14°C° 0 mm 2 m/s 748 mmHg 61%
    02:00 +14°C° 0 mm 2 m/s 748 mmHg 63%
    03:00 +13°C° 0 mm 2 m/s 748 mmHg 66%
    04:00 +12°C° 0 mm 1 m/s 748 mmHg 68%
    05:00 +13°C° 0 mm 1 m/s 748 mmHg 66%
    06:00 +13°C° 0 mm 1 m/s 748 mmHg 64%
    07:00 +14°C° 0 mm 1 m/s 748 mmHg 63%
    08:00 +18°C° 0 mm 1 m/s 748 mmHg 54%
    09:00 +22°C° 0 mm 1 m/s 747 mmHg 45%
    10:00 +25°C° 0 mm 1 m/s 747 mmHg 37%
    11:00 +27°C° 0 mm 1 m/s 747 mmHg 31%
    12:00 +30°C° 0 mm 1 m/s 746 mmHg 26%
    13:00 +32°C° 0 mm 1 m/s 745 mmHg 20%
    14:00 +32°C° 0 mm 1 m/s 744 mmHg 19%
    15:00 +33°C° 0 mm 1 m/s 743 mmHg 18%
    16:00 +33°C° 0 mm 1 m/s 743 mmHg 17%
    17:00 +31°C° 0 mm 1 m/s 742 mmHg 23%
    18:00 +29°C° 0 mm 1 m/s 742 mmHg 29%
    19:00 +27°C° 0 mm 1 m/s 742 mmHg 35%
    20:00 +26°C° 0,3 mm 1 m/s 742 mmHg 43%
    21:00 +24°C° 0,3 mm 1 m/s 742 mmHg 50%
    22:00 +23°C° 0,3 mm 1 m/s 742 mmHg 58%
    23:00 +22°C° 0 mm 1 m/s 741 mmHg 61%

    Poimâine, 20 Ianuarie, Vineri

    Timp Temperatura Precipitaţii Vânt Presiune Umiditate
    00:00 +22°C° 0 mm 1 m/s 740 mmHg 65%
    01:00 +21°C° 0 mm 1 m/s 739 mmHg 68%
    02:00 +21°C° 0,1 mm 1 m/s 739 mmHg 73%
    03:00 +21°C° 0,1 mm 1 m/s 738 mmHg 77%
    04:00 +21°C° 0,1 mm 1 m/s 738 mmHg 82%
    05:00 +21°C° 0,4 mm 1 m/s 738 mmHg 82%
    06:00 +21°C° 0,4 mm 1 m/s 738 mmHg 82%
    07:00 +22°C° 0,4 mm 1 m/s 738 mmHg 83%
    08:00 +24°C° 0,3 mm 1 m/s 738 mmHg 73%
    09:00 +26°C° 0,3 mm 1 m/s 738 mmHg 64%
    10:00 +28°C° 0,3 mm 2 m/s 738 mmHg 55%
    11:00 +29°C° 0 mm 2 m/s 738 mmHg 49%
    12:00 +30°C° 0 mm 3 m/s 738 mmHg 43%
    13:00 +33°C° 0 mm 3 m/s 738 mmHg 37%
    14:00 +31°C° 0 mm 3 m/s 738 mmHg 37%
    15:00 +32°C° 0 mm 4 m/s 738 mmHg 36%
    16:00 +30°C° 0 mm 4 m/s 738 mmHg 36%
    17:00 +28°C° 0 mm 4 m/s 739 mmHg 38%
    18:00 +26°C° 0 mm 3 m/s 740 mmHg 41%
    19:00 +24°C° 0 mm 3 m/s 741 mmHg 43%
    20:00 +21°C° 0 mm 3 m/s 742 mmHg 46%
    21:00 +20°C° 0 mm 3 m/s 743 mmHg 49%
    22:00 +18°C° 0 mm 3 m/s 744 mmHg 52%
    23:00 +17°C° 0 mm 3 m/s 744 mmHg 58%

    21 Ianuarie, Sâmbătă

    Timp Temperatura Precipitaţii Vânt Presiune Umiditate
    00:00 +16°C° 0 mm 2 m/s 744 mmHg 65%
    01:00 +16°C° 0 mm 2 m/s 744 mmHg 71%
    02:00 +15°C° 0 mm 2 m/s 745 mmHg 74%
    03:00 +15°C° 0 mm 2 m/s 745 mmHg 76%
    04:00 +14°C° 0 mm 2 m/s 745 mmHg 78%
    05:00 +15°C° 0 mm 2 m/s 745 mmHg 75%
    06:00 +15°C° 0 mm 2 m/s 746 mmHg 72%
    07:00 +15°C° 0 mm 2 m/s 747 mmHg 69%
    08:00 +18°C° 0 mm 2 m/s 747 mmHg 59%
    09:00 +20°C° 0 mm 2 m/s 747 mmHg 49%
    10:00 +24°C° 0 mm 2 m/s 747 mmHg 38%
    11:00 +25°C° 0 mm 2 m/s 747 mmHg 33%
    12:00 +27°C° 0 mm 2 m/s 747 mmHg 29%
    13:00 +29°C° 0 mm 2 m/s 747 mmHg 24%
    14:00 +30°C° 0 mm 2 m/s 746 mmHg 24%
    15:00 +30°C° 0 mm 3 m/s 746 mmHg 23%
    16:00 +31°C° 0 mm 3 m/s 746 mmHg 23%
    17:00 +29°C° 0 mm 3 m/s 746 mmHg 27%
    18:00 +28°C° 0 mm 3 m/s 747 mmHg 32%
    19:00 +26°C° 0 mm 3 m/s 747 mmHg 36%
    20:00 +24°C° 0 mm 2 m/s 747 mmHg 42%
    21:00 +23°C° 0 mm 2 m/s 748 mmHg 48%
    22:00 +20°C° 0 mm 2 m/s 748 mmHg 54%
    23:00 +19°C° 0 mm 2 m/s 748 mmHg 59%

    22 Ianuarie, Duminică

    Timp Temperatura Precipitaţii Vânt Presiune Umiditate
    00:00 +18°C° 0 mm 2 m/s 748 mmHg 63%
    01:00 +17°C° 0 mm 2 m/s 748 mmHg 68%
    02:00 +16°C° 0 mm 1 m/s 748 mmHg 71%
    03:00 +15°C° 0 mm 1 m/s 748 mmHg 74%
    04:00 +15°C° 0 mm 1 m/s 748 mmHg 78%
    05:00 +16°C° 0 mm 1 m/s 749 mmHg 73%
    06:00 +18°C° 0 mm 1 m/s 749 mmHg 69%
    07:00 +19°C° 0 mm 1 m/s 749 mmHg 65%
    08:00 +22°C° 0 mm 1 m/s 749 mmHg 58%
    09:00 +25°C° 0 mm 1 m/s 749 mmHg 51%
    10:00 +28°C° 0 mm 1 m/s 749 mmHg 44%
    11:00 +30°C° 0 mm 1 m/s 748 mmHg 38%
    12:00 +33°C° 0 mm 1 m/s 748 mmHg 31%
    13:00 +35°C° 0 mm 1 m/s 747 mmHg 25%
    14:00 +36°C° 0 mm 1 m/s 747 mmHg 22%
    15:00 +37°C° 0 mm 1 m/s 746 mmHg 20%
    16:00 +36°C° 0 mm 0 m/s 745 mmHg 18%
    17:00 +33°C° 0 mm 0 m/s 745 mmHg 23%
    18:00 +33°C° 0 mm 1 m/s 745 mmHg 28%
    19:00 +31°C° 0 mm 1 m/s 745 mmHg 33%
    20:00 +29°C° 0 mm 1 m/s 746 mmHg 35%
    21:00 +27°C° 0 mm 1 m/s 746 mmHg 38%
    22:00 +26°C° 0 mm 1 m/s 746 mmHg 40%
    23:00 +25°C° 0 mm 1 m/s 745 mmHg 43%

    23 Ianuarie, Luni

    Timp Temperatura Precipitaţii Vânt Presiune Umiditate
    00:00 +24°C° 0 mm 1 m/s 745 mmHg 45%
    01:00 +23°C° 0 mm 1 m/s 745 mmHg 48%
    02:00 +23°C° 0 mm 1 m/s 744 mmHg 49%
    03:00 +23°C° 0 mm 1 m/s 744 mmHg 50%
    04:00 +22°C° 0 mm 1 m/s 744 mmHg 51%
    05:00 +24°C° 0 mm 1 m/s 744 mmHg 52%
    06:00 +25°C° 0 mm 2 m/s 744 mmHg 52%
    07:00 +26°C° 0 mm 2 m/s 745 mmHg 53%
    08:00 +29°C° 0 mm 2 m/s 744 mmHg 47%
    09:00 +32°C° 0 mm 2 m/s 744 mmHg 41%
    10:00 +36°C° 0 mm 2 m/s 744 mmHg 35%
    11:00 +38°C° 0 mm 2 m/s 743 mmHg 29%
    12:00 +39°C° 0 mm 2 m/s 743 mmHg 22%
    13:00 +41°C° 0 mm 2 m/s 742 mmHg 16%
    14:00 +40°C° 0 mm 2 m/s 741 mmHg 17%
    15:00 +40°C° 0 mm 2 m/s 741 mmHg 19%
    16:00 +39°C° 0 mm 2 m/s 740 mmHg 20%
    17:00 +36°C° 0 mm 1 m/s 740 mmHg 23%
    18:00 +35°C° 0 mm 1 m/s 740 mmHg 26%
    19:00 +33°C° 0 mm 1 m/s 740 mmHg 29%
    20:00 +32°C° 0 mm 1 m/s 740 mmHg 32%
    21:00 +30°C° 0 mm 1 m/s 741 mmHg 34%
    22:00 +29°C° 0 mm 1 m/s 741 mmHg 37%
    23:00 +28°C° 0,1 mm 1 m/s 741 mmHg 43%
    Arată mai mult